User: anonymous   Login
Location: Caltech
(34.1382°N, 118.1253°W)
Time: 05:30:53
(UTC-07:00)
Language:

Cosmos 1975 - Orbit

View from above orbital plane
View from above orbital plane
View from above satellite
View from above satellite

Ground track
Ground track

The orbit data is extracted from the following two-line orbital elements,

1 19573U 88093A   14295.12461694  .00005481  00000-0  42653-3 0  3486
2 19573 082.5249 201.5478 0015473 001.7954 358.3323 15.00991857414236
Epoch (UTC): 22 October 2014 02:59:26
Eccentricity: 0.0015473
inclination: 82.5249°
perigee height: 553 km
apogee height: 574 km
right ascension of ascending node: 201.5478°
argument of perigee: 1.7954°
revolutions per day: 15.00991857
mean anomaly at epoch: 358.3323°
orbit number at epoch: 41423

The dashed part of the orbit path shows where the satellite is in the earth's shadow,  

DLR